Wind_Speed
12 12 12 12 11 11 11 12 12 11 10 8 7 7 6 6 5 5 6 6 6 6 6 7 8 8 8 7 8 9 9 8 7 6 5 3 3 3 2 1 1 1 0 0 0 0 1 1 2 2 2 3 3 4 4 4 5 6 7 7 7 7 8 8 8 9 10 10 10
13 13 13 12 12 12 12 12 12 12 11 10 9 9 7 6 5 5 5 5 5 5 6 6 7 8 7 7 7 9 9 8 7 6 5 3 3 3 2 2 1 1 1 0 0 0 1 1 1 2 2 3 3 3 4 5 5 6 6 7 7 7 7 7 8 9 10 10 10
13 13 13 13 13 12 12 12 12 11 11 10 10 10 9 8 6 5 5 5 5 5 5 6 7 7 7 6 7 8 8 8 8 7 6 4 3 3 2 2 2 1 1 0 1 1 1 1 1 2 2 2 3 3 4 4 5 5 6 7 7 7 7 7 8 9 10 10 11
14 14 14 14 14 13 12 11 10 10 11 11 11 11 11 10 8 7 6 5 5 5 5 6 7 7 7 7 7 8 9 9 9 8 7 5 4 3 3 2 2 1 1 1 1 1 1 1 1 2 2 2 3 3 4 4 5 5 6 6 7 7 7 7 8 9 9 10 11
14 14 15 15 14 14 13 12 11 11 11 12 12 12 12 12 11 10 8 6 6 6 6 6 7 7 7 7 8 9 9 9 9 8 7 7 5 4 4 3 3 2 1 1 1 1 1 1 1 2 2 2 3 4 4 4 4 5 5 6 6 7 7 7 8 8 9 10 11
15 15 15 15 15 14 14 13 13 12 12 12 12 12 12 12 12 10 8 7 6 6 6 6 7 7 7 7 8 8 9 9 9 8 7 7 6 5 4 4 4 3 2 2 1 1 1 1 1 1 2 2 3 4 4 4 4 4 5 5 6 7 7 7 7 8 9 10 11
15 15 15 15 15 15 14 14 13 12 12 12 12 11 11 11 10 9 8 7 7 6 6 6 7 7 7 7 7 8 9 9 8 8 8 7 7 6 5 5 5 4 3 2 2 2 2 2 1 2 2 2 3 3 4 4 4 4 5 5 6 6 7 7 8 8 9 11 11
15 15 15 15 15 15 15 14 13 13 12 12 11 10 10 9 8 7 7 7 7 7 7 7 7 7 7 7 7 8 9 9 8 8 8 8 7 6 6 5 5 4 4 3 3 3 2 2 2 2 2 2 2 3 4 4 5 5 5 6 6 6 7 7 8 8 9 10 12
16 16 15 15 15 15 15 14 14 13 12 11 11 10 8 8 7 7 7 7 7 7 7 7 7 8 7 7 7 8 8 9 8 8 8 8 7 6 6 6 5 4 4 4 3 3 3 2 2 2 2 3 3 3 4 4 5 5 6 6 6 6 7 7 8 8 9 10 11
17 16 16 15 15 14 14 14 14 13 12 11 10 9 8 8 7 7 6 6 7 7 7 7 8 8 8 7 7 8 8 8 8 8 7 7 7 7 6 6 5 5 4 4 4 3 3 3 3 3 3 3 3 3 4 4 5 5 6 6 6 7 7 7 8 8 9 10 11
17 17 16 15 15 14 14 14 14 13 12 11 10 9 8 7 7 6 6 7 7 7 7 7 7 7 7 7 7 8 8 8 8 8 7 7 7 6 6 6 6 5 5 4 4 4 4 3 3 3 3 3 4 3 4 4 5 6 6 6 7 7 8 8 8 8 9 10 11
17 17 17 16 15 14 14 14 14 13 12 12 11 10 8 7 6 7 7 7 6 6 6 6 6 6 6 6 6 7 8 8 8 8 7 7 6 6 6 6 6 5 5 5 5 5 4 4 4 4 4 4 4 3 3 4 5 5 6 6 7 7 7 8 8 8 9 9 10
16 17 17 16 15 14 14 14 13 13 12 12 11 10 9 7 7 8 7 6 5 5 5 5 5 5 5 5 5 6 7 7 7 7 7 7 6 6 6 6 6 6 5 5 5 5 4 4 4 4 4 4 4 3 4 4 5 5 5 6 6 7 7 8 8 8 9 10 10
16 17 17 17 16 15 14 14 14 13 12 12 10 9 8 8 8 8 7 5 5 5 5 5 4 5 5 5 5 5 6 6 7 7 7 7 7 6 6 6 6 6 6 6 6 5 5 5 5 4 4 4 4 4 4 4 4 5 5 6 6 7 7 7 8 8 9 9 10
15 16 17 17 16 15 15 14 14 13 12 11 10 9 9 9 9 8 6 5 5 5 4 4 4 4 4 5 5 5 6 6 6 7 7 7 7 7 6 6 6 6 6 6 6 5 5 5 5 5 5 4 4 4 4 4 5 5 5 5 6 6 7 7 8 8 9 9 10
14 15 16 17 17 16 15 15 14 13 12 11 10 10 11 11 10 8 7 6 6 6 5 5 4 4 4 4 5 5 5 6 6 7 7 7 7 7 7 6 6 6 6 6 6 5 5 5 5 5 5 5 5 5 5 5 5 5 5 5 6 6 6 7 7 8 9 9 10
13 14 15 16 17 16 16 15 15 14 13 11 10 10 11 11 11 9 8 8 7 6 5 5 5 4 4 4 4 5 5 6 6 7 7 7 7 7 7 7 6 6 6 7 6 6 5 5 5 5 5 5 5 5 5 5 5 5 5 5 5 6 6 6 7 7 8 9 9
12 13 14 16 17 17 17 16 16 15 13 11 10 11 11 11 11 10 9 9 7 6 5 5 5 5 4 5 5 5 5 6 6 7 7 7 7 7 7 7 7 7 7 7 7 6 5 5 5 6 5 5 5 5 5 5 4 4 4 5 5 5 5 6 6 7 8 8 9
12 12 13 15 16 17 18 17 17 16 14 12 11 11 12 12 11 11 10 9 8 6 5 5 6 5 5 5 5 5 5 6 6 6 6 6 7 7 7 7 7 7 7 7 7 7 6 6 6 6 5 5 5 5 5 5 4 4 4 4 4 5 5 6 6 7 7 8 8
13 12 13 14 15 17 18 18 18 16 15 13 12 12 12 12 12 11 11 10 8 6 6 6 6 6 6 5 5 5 5 6 6 6 6 6 6 6 7 7 7 7 7 7 7 7 7 6 6 6 6 5 5 5 5 5 4 4 4 4 4 4 4 5 6 6 7 7 8
14 13 13 13 15 16 18 18 18 17 16 15 13 13 13 12 12 12 12 10 8 7 7 7 7 7 6 6 6 6 5 6 6 6 6 5 5 6 6 6 7 7 8 8 8 8 7 6 6 6 6 6 5 5 5 5 4 4 4 4 4 4 4 5 5 6 7 7 8
16 14 14 13 14 15 17 17 18 17 17 16 15 14 13 13 12 12 12 11 9 8 8 7 7 7 7 6 6 6 6 6 6 6 5 5 5 5 6 6 6 7 8 8 8 8 8 7 6 6 6 6 6 5 5 4 4 4 4 4 4 4 4 4 5 5 6 7 7
17 16 14 14 14 14 15 17 17 18 18 17 16 15 14 13 13 13 13 11 10 9 8 8 8 8 8 7 6 6 6 6 6 6 5 5 5 5 5 5 6 6 7 8 9 9 9 8 7 6 6 6 5 5 5 4 4 4 4 4 4 4 4 4 5 5 6 6 7
16 16 15 14 14 14 15 16 17 18 19 19 18 16 15 14 14 14 13 12 11 10 9 8 8 9 9 8 6 6 6 6 6 6 5 5 5 5 5 5 6 6 7 7 8 9 9 8 8 7 6 6 6 5 5 5 5 5 5 5 4 4 4 4 5 5 6 6 7
15 15 16 15 14 15 15 16 17 18 19 19 18 17 16 15 15 14 14 13 12 11 10 9 9 10 10 8 7 6 6 7 7 6 6 5 5 5 5 5 6 6 6 7 8 9 10 9 8 7 7 7 6 6 5 5 5 5 5 5 5 5 5 4 5 5 5 6 7
15 15 15 15 15 15 15 15 16 17 18 19 19 18 17 16 15 15 14 13 13 12 10 9 9 9 9 8 7 7 7 7 7 7 6 6 5 5 5 5 5 5 6 7 8 9 10 10 9 8 7 7 7 6 5 5 5 5 5 5 5 5 5 5 5 5 5 6 6
16 15 15 15 15 14 15 15 15 16 17 19 20 20 18 17 16 16 15 14 14 13 11 10 9 9 9 8 8 7 7 7 7 7 6 6 6 6 5 5 5 5 5 6 7 8 9 10 9 8 8 7 7 6 6 6 6 6 6 5 5 5 5 4 4 4 4 5 5
16 15 14 14 14 14 14 14 15 15 17 18 20 20 19 17 17 16 16 15 14 13 12 11 10 9 8 8 8 8 8 8 7 7 7 6 6 6 6 5 5 5 5 6 7 8 9 9 10 9 8 7 7 6 6 6 6 6 6 6 5 5 5 4 4 4 4 4 5
17 15 14 14 14 14 14 14 14 15 16 18 19 19 19 18 17 17 16 16 15 15 14 12 11 9 9 9 8 8 8 8 8 7 7 6 6 6 6 5 5 5 6 7 7 8 8 9 9 9 9 8 7 6 6 7 6 6 6 5 5 5 5 4 4 4 4 4 5
17 16 15 14 14 14 14 15 15 15 15 17 18 19 18 18 17 17 17 16 16 15 14 13 12 10 10 9 9 8 8 8 8 8 7 7 6 6 6 6 5 6 6 7 8 8 8 9 9 9 9 9 7 7 6 6 6 6 6 5 6 6 5 5 5 5 4 4 5
18 16 15 14 14 14 14 15 15 15 15 16 17 18 18 18 17 17 17 17 17 16 15 13 12 11 10 9 8 8 8 8 9 8 8 7 7 6 6 6 6 6 7 7 8 8 8 9 9 9 9 9 7 6 6 6 6 6 6 6 6 6 6 5 5 5 5 5 5
18 17 15 14 14 14 14 14 14 15 15 16 17 18 18 18 18 17 17 17 17 16 16 15 13 12 11 10 9 8 8 9 9 9 8 8 7 7 7 6 6 6 7 8 8 8 8 9 10 10 9 9 7 6 6 6 6 6 7 7 7 6 6 5 5 5 5 5 5
18 18 16 15 14 14 14 13 14 14 15 16 17 17 18 18 17 17 16 16 16 16 16 16 15 13 11 10 10 9 9 9 9 9 9 8 7 7 7 7 7 7 7 8 8 8 9 10 10 10 10 9 8 7 6 7 7 7 7 7 7 6 6 6 5 5 5 5 5
19 18 17 15 14 14 13 13 13 14 15 16 17 17 18 17 17 16 16 16 16 16 16 16 15 13 12 11 10 10 9 9 10 9 9 8 8 7 7 7 7 7 8 8 8 9 9 10 10 10 10 9 8 7 7 7 7 7 7 7 7 7 6 6 6 5 5 5 5
19 19 18 16 15 14 13 13 13 14 15 16 17 17 18 18 17 17 16 16 16 15 15 15 14 13 12 11 10 10 9 9 10 10 9 9 8 8 7 7 7 8 8 9 9 9 10 10 11 11 10 9 8 7 7 7 8 8 8 8 7 7 6 6 6 6 5 5 5
19 19 19 18 16 14 13 13 13 14 15 16 17 17 18 18 18 17 16 16 15 15 14 14 14 13 12 11 10 10 10 10 10 10 10 9 9 8 8 7 7 8 9 9 9 9 10 10 11 11 10 9 8 8 8 8 8 8 8 8 7 7 7 6 6 6 6 5 5
20 19 19 18 16 15 14 13 14 14 15 16 17 17 18 18 17 16 16 16 15 15 15 15 15 14 13 12 12 11 10 10 10 10 10 10 9 8 8 8 8 8 9 9 9 9 10 11 11 11 11 10 9 8 8 8 8 8 8 8 7 7 6 6 6 6 6 6 5
20 20 19 19 17 15 14 14 14 15 16 16 16 17 18 18 17 17 17 17 16 16 16 16 15 15 14 13 12 11 11 12 11 10 10 10 9 9 8 8 8 8 9 9 9 9 10 11 11 11 11 10 9 9 8 8 8 8 8 8 7 7 6 6 6 6 6 6 6
21 20 19 19 18 16 15 15 15 16 16 16 16 16 17 18 18 18 17 17 17 17 16 16 16 15 15 13 12 12 13 13 12 11 10 10 9 9 8 8 8 8 8 9 9 9 10 10 11 11 11 10 9 9 8 8 8 9 8 8 8 7 6 6 6 6 6 7 7
21 20 20 19 18 16 15 15 15 16 15 15 15 16 17 18 18 18 18 17 16 16 16 16 16 15 15 13 12 12 14 15 14 12 10 10 9 9 8 8 8 8 9 9 9 9 9 10 10 11 11 11 10 9 8 8 9 9 9 8 8 8 7 6 6 6 6 7 7
21 20 20 19 18 16 15 15 15 15 15 15 15 16 17 18 18 18 17 16 16 16 15 15 15 15 15 14 12 12 13 15 16 13 11 11 10 10 9 8 8 9 9 9 8 9 9 9 10 10 11 12 11 10 9 9 9 9 9 9 8 8 7 7 7 6 6 7 7
Wind_Direction
268 267 264 260 255 251 248 246 246 246 244 242 238 235 234 234 233 230 227 226 227 228 227 224 223 224 228 232 231 226 223 224 228 232 234 239 241 242 234 208 165 134 80 292 356 110 104 82 72 60 52 47 44 40 35 28 21 18 17 12 7 3 3 3 1 359 358 357 356
270 269 266 263 259 255 253 252 251 250 246 242 237 231 229 231 233 231 228 226 227 228 227 226 225 226 228 232 232 225 220 221 224 223 223 229 229 220 210 205 192 175 163 183 167 159 134 104 78 62 50 47 45 42 37 30 26 25 23 19 13 9 7 6 4 3 1 0 359
272 270 269 266 262 259 257 256 256 254 250 245 241 235 230 228 231 233 233 233 231 231 229 227 228 229 230 232 230 224 219 219 220 219 218 223 219 212 209 208 200 190 181 181 186 176 143 118 93 74 60 52 48 46 41 36 32 31 29 26 21 16 12 10 7 6 5 3 2
274 272 269 267 265 262 260 259 258 257 254 250 247 243 239 235 234 234 236 240 239 238 233 229 230 233 235 233 230 224 220 218 216 217 219 222 218 208 203 201 196 201 213 203 194 181 153 124 103 86 74 64 58 52 47 42 40 39 36 33 29 23 18 14 11 10 8 6 4
277 273 270 268 266 265 263 261 260 259 257 255 251 248 246 245 244 243 242 242 242 240 237 233 233 237 240 238 233 227 222 218 215 219 225 225 223 219 213 208 207 213 230 219 206 197 168 130 111 100 88 76 65 60 55 53 52 50 46 42 36 30 24 18 15 14 12 9 7
278 275 272 269 268 266 265 264 263 262 260 258 255 253 251 251 251 249 245 242 242 242 241 238 237 240 243 242 236 229 223 219 218 223 229 227 225 226 227 224 224 227 233 230 220 212 188 151 133 119 103 87 74 63 60 59 60 58 54 48 40 33 28 24 20 17 15 14 12
278 275 272 270 268 267 266 266 267 266 264 261 258 256 255 254 251 246 241 241 243 243 243 241 240 241 244 242 237 229 223 220 222 226 229 229 229 231 234 232 232 234 235 233 227 212 194 169 152 140 122 103 83 70 62 62 63 64 59 53 43 36 31 28 25 22 20 19 18
278 276 274 271 269 267 266 266 268 268 267 264 261 258 256 253 247 242 241 244 244 244 243 242 241 242 243 241 234 226 222 220 222 226 229 228 232 236 236 232 233 233 234 230 220 208 195 177 159 149 137 117 99 81 70 67 68 68 66 59 49 40 35 32 30 27 24 23 23
276 276 276 274 270 267 265 266 267 268 268 266 263 260 255 248 244 243 244 246 246 245 243 243 243 244 244 240 231 223 219 219 221 225 229 231 234 236 233 227 227 226 225 221 208 198 189 175 165 157 147 132 116 96 81 73 71 70 68 62 53 45 39 35 32 30 29 28 26
273 275 276 274 271 268 266 266 266 267 266 265 261 256 251 248 247 247 248 249 249 246 243 243 243 243 242 238 229 222 218 218 220 223 227 231 234 234 230 221 220 219 216 212 201 190 180 174 167 159 148 135 124 109 93 80 76 72 68 63 57 50 44 39 36 34 32 31 29
270 272 273 274 272 270 267 266 267 267 266 263 258 252 248 250 251 252 252 252 253 249 245 242 241 241 238 233 227 221 217 217 219 221 224 227 229 229 223 216 214 213 209 205 196 187 179 177 169 160 150 140 131 116 100 88 81 76 70 65 60 54 48 42 39 37 35 33 31
268 268 270 273 272 270 268 267 267 268 266 262 256 251 248 248 250 255 258 260 258 251 244 239 237 235 232 229 223 218 216 216 217 218 220 222 223 222 217 211 210 207 204 200 193 185 179 177 171 163 154 147 137 125 110 96 87 79 73 65 61 56 50 45 41 39 38 35 33
269 267 268 270 271 270 268 267 267 268 267 263 257 252 248 246 250 257 263 264 257 248 241 237 234 230 226 224 220 215 213 213 213 213 215 216 214 212 210 207 206 202 198 195 190 185 181 178 173 165 158 150 141 130 118 106 94 85 76 68 62 57 51 46 44 41 40 38 36
272 267 266 267 268 269 268 267 267 267 267 265 258 251 248 247 252 258 263 259 251 244 239 235 232 229 225 221 216 212 210 208 207 207 209 210 208 206 205 204 202 198 194 191 188 187 186 182 176 168 161 153 143 133 124 112 101 91 82 73 66 60 54 49 46 44 42 39 36
278 271 266 265 266 267 268 267 267 267 267 264 257 251 249 250 253 256 256 249 241 238 234 231 232 233 230 223 215 211 209 206 204 205 205 206 205 203 202 200 198 195 193 191 188 188 188 184 178 172 165 156 145 134 125 114 104 95 86 79 71 64 58 52 50 47 44 40 37
286 276 269 264 264 265 266 267 267 268 267 263 257 252 251 252 255 254 248 242 234 230 226 226 230 235 236 230 219 213 208 205 204 204 204 204 204 204 203 200 198 195 193 191 189 189 188 183 176 170 164 156 145 135 126 115 105 95 89 81 75 67 62 56 53 50 46 43 40
292 282 272 266 263 263 265 266 268 268 266 263 258 253 252 252 254 252 247 242 237 230 224 224 228 234 238 236 226 214 207 204 204 204 204 204 204 205 205 202 200 197 194 192 191 189 187 183 176 168 159 153 145 137 129 121 111 100 91 83 76 70 65 61 55 51 48 46 43
297 287 278 270 265 263 264 266 267 268 266 263 259 255 254 253 251 248 245 245 241 234 229 231 231 232 233 232 226 215 206 203 204 204 204 205 205 207 207 206 204 201 198 195 192 189 185 182 179 171 161 154 148 141 134 128 120 110 98 88 79 73 67 63 57 53 51 49 46
302 291 282 275 269 266 265 266 267 267 266 263 259 256 255 253 249 245 242 243 241 234 231 236 235 233 230 226 222 214 205 202 202 203 205 206 207 209 210 210 209 207 203 199 196 192 187 181 179 174 168 161 154 146 139 132 125 117 106 94 86 78 70 65 60 56 54 51 48
310 297 286 280 275 270 267 266 266 266 265 263 259 256 255 253 248 241 238 238 238 233 229 234 234 232 227 224 219 214 208 204 202 202 204 206 208 210 212 212 211 210 207 203 199 196 190 183 178 175 172 166 159 152 144 137 130 122 113 103 95 85 77 69 63 59 55 52 50
316 305 293 284 279 274 270 266 265 264 264 261 258 255 254 251 244 238 234 234 233 230 229 232 231 227 222 221 219 215 211 206 203 202 203 206 208 210 212 211 212 211 208 205 202 198 193 185 180 176 172 168 164 157 150 143 136 130 123 114 106 96 86 77 69 62 57 53 52
317 311 300 288 280 274 269 265 263 261 261 260 257 254 252 248 240 234 230 228 227 227 229 231 227 222 218 217 217 215 211 207 205 204 205 206 207 209 209 208 210 212 210 206 202 199 196 191 186 180 175 171 168 163 158 151 146 137 129 122 116 108 99 89 78 67 60 55 53
316 312 304 292 282 274 268 263 260 258 257 257 255 253 249 244 236 230 226 224 223 225 228 229 224 217 212 211 213 213 210 206 205 205 206 206 205 207 207 206 209 211 211 208 202 199 197 195 190 185 179 175 171 167 164 160 154 145 136 128 123 116 107 96 88 77 66 60 56
312 308 303 295 286 278 271 264 259 256 254 254 253 251 247 240 233 228 224 222 222 223 226 229 223 215 209 204 206 209 208 204 203 204 206 206 204 206 208 209 209 212 212 210 204 199 196 194 191 187 182 176 173 168 163 160 155 150 144 135 127 119 110 100 92 82 72 64 59
309 304 300 294 287 281 275 267 260 255 252 251 250 248 245 238 231 226 223 222 222 223 225 229 225 216 208 201 202 205 205 201 200 202 205 206 205 206 209 211 211 212 213 213 207 200 196 193 191 187 183 177 172 166 160 157 153 151 147 141 133 125 115 105 96 86 77 68 62
309 302 297 292 286 280 274 268 261 254 250 248 247 246 242 236 230 225 223 222 223 223 225 227 224 215 206 198 199 202 203 201 199 200 202 204 204 205 208 211 211 211 213 213 207 199 194 192 189 185 180 176 171 164 158 154 152 149 146 141 136 130 121 111 100 89 81 73 65
309 302 295 289 284 277 271 267 261 254 248 245 244 243 240 234 228 225 223 223 223 223 223 224 221 213 203 198 199 202 203 202 199 199 201 203 203 204 207 209 209 209 209 208 201 195 192 189 187 183 178 174 169 164 159 155 150 145 142 140 136 131 123 113 103 94 83 74 67
310 303 294 286 279 273 269 264 258 251 246 243 242 241 238 232 227 223 222 223 222 221 220 219 218 211 203 200 201 202 202 201 198 197 199 201 201 202 205 207 207 203 198 194 192 190 189 188 185 182 177 172 167 162 157 153 149 145 141 138 134 130 123 115 106 96 85 77 71
311 304 295 285 275 269 266 260 254 249 245 243 241 239 235 230 224 221 221 220 220 219 217 216 215 210 203 202 201 201 200 200 197 196 197 198 197 199 204 204 202 198 192 186 185 187 187 187 184 180 176 172 166 162 159 156 151 146 141 137 133 128 122 113 106 98 89 82 75
313 307 297 285 274 267 261 258 253 248 245 241 239 236 231 226 222 219 218 218 218 218 217 216 213 209 205 202 199 198 199 199 198 197 196 197 197 199 200 199 196 193 189 185 184 185 186 185 183 179 176 172 167 162 159 156 151 146 142 137 132 127 120 114 106 99 92 88 79
315 309 299 287 275 265 260 256 252 248 242 238 234 231 227 222 219 217 217 217 218 218 217 215 212 210 207 203 199 197 197 197 197 196 196 195 195 196 196 195 192 190 188 186 184 183 183 181 179 177 175 172 166 161 157 154 149 145 140 136 132 126 120 113 105 99 94 89 82
317 313 303 290 276 266 259 254 249 244 239 235 231 227 224 220 218 217 217 217 218 218 217 215 212 210 207 204 200 198 196 196 196 196 194 192 191 192 192 191 190 188 186 185 183 181 179 178 177 176 172 168 163 158 154 149 144 140 136 133 130 125 120 114 107 101 95 90 85
319 316 308 295 280 268 259 252 245 240 237 232 229 225 221 218 216 215 214 214 215 216 215 214 212 209 207 204 200 197 195 195 195 195 194 192 190 190 190 190 190 187 184 182 180 179 177 176 175 174 170 164 159 154 150 146 142 138 135 131 128 123 117 112 106 100 94 89 86
319 317 311 300 285 271 259 250 242 237 233 230 226 222 219 216 213 211 211 212 212 214 215 214 212 210 208 206 201 197 194 194 194 194 193 192 191 190 189 190 191 187 182 179 179 177 175 174 173 171 167 162 156 152 148 145 141 138 135 132 127 121 115 109 102 96 90 87 87
317 317 313 304 290 274 260 249 240 234 230 226 222 219 216 214 211 210 210 210 209 210 211 212 210 209 207 206 201 197 194 194 194 194 192 191 189 188 189 190 190 187 182 179 177 176 174 174 172 170 166 161 155 150 146 144 140 138 136 133 128 122 116 108 100 92 86 84 86
314 314 312 306 294 279 262 248 237 231 228 224 220 216 213 212 211 210 210 208 206 205 206 206 205 204 202 201 199 197 195 194 193 192 190 188 187 187 187 188 188 186 182 180 178 176 175 174 172 170 168 164 157 152 148 145 142 140 137 134 129 124 118 109 99 89 84 82 85
310 310 309 305 296 282 264 248 237 231 227 224 219 215 211 209 208 208 208 206 203 202 202 203 202 201 201 199 198 196 195 193 191 189 187 186 186 186 185 184 184 184 183 182 179 178 176 175 173 173 171 168 162 156 152 148 145 143 140 137 133 129 122 112 100 89 83 81 84
307 306 305 302 296 283 267 250 238 231 228 225 220 215 211 207 206 205 205 204 201 200 200 200 200 200 201 200 197 196 194 191 188 185 183 185 186 185 183 180 180 182 183 183 181 179 178 177 177 178 177 172 166 161 156 152 149 147 145 142 139 135 128 115 103 92 85 85 88
304 303 301 299 294 283 268 252 240 232 228 225 220 215 210 206 205 204 204 203 202 201 200 200 199 200 200 199 196 195 194 192 187 184 184 185 186 183 180 178 179 182 183 182 182 180 179 180 183 185 183 175 169 164 161 156 153 151 149 147 144 140 133 121 109 99 93 89 91
301 300 298 296 291 282 268 253 241 233 229 224 218 213 208 205 204 204 202 201 200 200 200 200 200 200 199 196 194 194 194 191 187 184 185 185 183 180 178 179 180 181 182 181 181 180 181 184 188 190 186 177 171 167 163 159 156 154 152 150 147 144 138 129 119 110 102 95 91
298 297 296 294 289 281 267 253 242 234 229 224 218 212 208 204 203 201 199 197 197 198 199 199 198 197 196 193 191 191 191 190 187 186 186 185 181 179 179 180 180 181 180 179 179 180 182 186 192 193 187 178 172 168 164 159 157 155 155 153 151 147 143 137 128 119 111 103 96
Height
759 759 759 759 759 758 758 758 758 758 758 758 758 758 758 758 758 758 757 757 757 757 757 757 757 757 757 757 757 757 757 758 758 758 758 758 758 758 758 758 757 757 758 757 757 757 757 757 757 757 757 757 757 756 756 756 755 755 755 754 754 753 752 752 751 751 750 749 748
759 759 758 758 758 758 758 758 757 757 757 757 757 757 757 757 757 757 757 757 757 757 757 757 757 757 757 757 757 757 757 757 757 758 758 758 758 758 757 757 757 757 757 757 757 757 757 757 757 757 757 757 757 756 756 756 755 755 755 754 754 753 752 752 751 751 750 749 748
758 758 758 758 758 758 757 757 757 757 757 756 756 756 757 757 757 757 757 757 757 756 756 756 756 756 756 756 757 757 757 757 757 757 757 758 757 757 757 757 757 757 757 757 757 757 757 757 757 757 757 757 757 756 756 756 755 755 755 754 754 753 752 752 751 751 750 749 748
758 758 758 757 757 757 757 757 757 757 756 756 756 756 756 756 756 756 756 756 756 756 756 756 756 756 756 756 756 756 756 756 757 757 757 757 757 757 757 757 757 757 757 757 757 757 757 757 757 757 757 757 756 756 756 756 755 755 755 754 754 753 753 752 751 751 750 749 748
757 757 757 757 757 757 757 757 756 756 756 755 755 755 755 755 755 755 755 755 755 755 755 755 755 755 755 755 755 755 755 756 756 757 757 757 757 757 757 757 757 757 757 757 757 757 757 757 757 757 757 757 756 756 756 756 755 755 755 754 754 753 753 752 752 751 750 749 749
757 757 756 756 756 756 756 756 755 755 755 754 754 754 754 754 754 754 754 755 755 755 755 755 755 754 754 754 754 755 755 755 756 756 756 757 757 757 757 757 757 757 757 757 757 757 757 757 757 757 757 757 756 756 756 756 755 755 755 754 754 753 753 752 752 751 751 750 749
756 756 756 755 755 755 755 755 755 754 754 754 754 754 754 754 754 754 754 754 754 754 754 754 754 754 754 753 754 754 754 755 755 756 756 756 756 756 756 756 757 757 757 757 757 757 757 757 757 757 757 757 756 756 756 756 755 755 754 754 754 753 753 752 752 751 751 750 749
755 755 755 754 754 754 754 754 754 754 753 753 753 753 753 753 754 754 754 754 754 754 753 753 753 753 753 753 753 753 754 754 754 755 755 756 756 756 756 756 756 756 756 756 756 757 756 756 757 757 757 757 756 756 756 755 755 755 754 754 754 753 753 752 752 751 751 750 749
754 754 754 754 753 753 753 753 753 753 753 753 753 753 753 753 753 753 753 753 753 753 753 752 752 752 752 752 752 752 753 753 754 754 755 755 755 755 756 756 756 756 756 756 756 756 756 756 757 757 756 756 756 756 756 755 755 755 754 754 754 753 753 752 752 752 751 750 750
753 753 753 753 752 752 752 752 752 752 752 752 752 752 752 752 752 752 752 752 752 752 752 752 752 751 751 751 752 752 752 753 753 754 754 754 754 755 755 755 756 756 756 756 756 756 756 756 756 756 756 756 756 756 756 755 755 755 754 754 754 753 753 752 752 752 751 751 750
752 752 752 752 752 752 752 751 751 751 751 751 752 752 752 752 752 752 752 751 751 751 751 751 751 751 751 751 751 752 752 752 752 753 753 754 754 754 754 755 755 755 755 756 756 756 756 756 756 756 756 756 756 756 756 755 755 755 755 754 754 754 753 753 752 752 751 751 750
751 751 751 751 751 751 751 750 750 750 750 750 751 751 751 752 751 751 751 750 750 750 750 750 750 750 750 750 751 751 751 752 752 752 753 753 754 754 754 754 755 755 755 755 755 755 756 756 756 756 756 756 756 756 756 755 755 755 755 754 754 754 753 753 752 752 752 751 750
750 750 750 750 750 750 750 749 749 749 749 749 750 750 750 751 751 750 750 750 750 750 750 750 750 750 750 750 750 751 751 751 752 752 752 753 753 754 754 754 754 755 755 755 755 755 756 756 756 756 756 756 756 756 756 755 755 755 755 755 754 754 753 753 752 752 752 751 751
749 749 749 749 749 749 749 748 748 748 748 748 749 749 750 750 750 750 750 750 750 750 749 749 750 750 750 750 750 750 751 751 751 752 752 753 753 753 754 754 754 754 755 755 755 755 756 756 756 756 756 756 756 756 755 755 755 755 755 755 754 754 754 753 753 752 752 751 751
748 748 748 748 748 748 748 747 747 747 747 748 748 748 749 749 749 749 749 749 749 749 749 749 750 750 750 750 750 750 750 751 751 752 752 752 753 753 753 754 754 754 754 755 755 755 756 755 756 756 756 756 756 755 755 755 755 755 755 755 754 754 754 753 753 752 752 752 751
747 747 747 747 747 747 747 747 747 747 747 747 747 747 748 748 748 748 749 749 749 749 749 749 750 750 750 750 750 750 750 751 751 752 752 752 752 753 753 753 754 754 754 754 755 755 755 755 755 755 756 755 755 755 755 755 755 755 755 755 754 754 754 753 753 753 752 752 751
747 746 746 746 746 746 746 746 746 746 746 747 747 747 747 747 747 748 748 748 748 749 749 749 749 749 750 750 750 750 750 751 751 751 752 752 752 752 753 753 753 753 754 754 754 755 755 755 755 755 755 755 755 755 755 755 755 755 755 755 754 754 754 754 753 753 752 752 752
746 746 746 745 745 745 745 745 745 745 746 746 746 746 746 747 747 747 747 748 748 748 748 749 749 749 750 750 750 750 750 750 751 751 751 751 752 752 752 752 753 753 753 754 754 754 755 755 755 755 755 755 755 755 755 755 755 755 755 755 754 754 754 754 753 753 753 752 752
746 745 745 744 744 744 745 745 745 745 745 745 746 746 746 746 746 747 747 747 747 748 748 748 749 749 749 750 750 750 750 750 750 751 751 751 751 752 752 752 752 753 753 753 754 754 754 755 755 755 755 755 755 755 755 755 755 755 755 755 755 754 754 754 753 753 753 752 752
745 745 744 744 744 744 744 744 744 744 745 745 745 745 745 745 746 746 746 747 747 747 748 748 748 749 749 749 749 749 749 750 750 750 751 751 751 751 752 752 752 752 753 753 753 754 754 754 755 755 755 755 755 755 755 755 755 755 755 755 755 754 754 754 754 753 753 752 752
745 744 744 743 743 743 743 743 743 744 744 744 744 745 745 745 745 745 746 746 747 747 747 748 748 748 749 749 749 749 749 749 750 750 750 750 751 751 751 752 752 752 752 752 753 753 754 754 754 755 755 755 755 755 755 755 755 755 755 755 755 754 754 754 754 754 753 753 752
744 743 743 742 742 742 742 742 742 743 743 743 744 744 744 744 745 745 745 746 746 747 747 747 747 748 748 748 749 749 749 749 749 750 750 750 750 751 751 751 752 752 752 752 752 753 753 754 754 754 755 755 755 755 755 755 755 755 755 755 754 754 754 754 754 754 753 753 752
743 743 742 742 741 741 741 741 742 742 742 742 743 743 743 744 744 744 745 745 746 746 747 747 747 747 748 748 748 748 748 749 749 749 750 750 750 751 751 751 751 752 752 752 752 752 753 753 754 754 754 754 754 755 755 755 755 755 755 755 754 754 754 754 754 754 753 753 753
743 742 742 741 741 740 740 740 740 741 741 742 742 742 743 743 744 744 744 744 745 745 746 746 747 747 747 747 748 748 748 748 749 749 749 750 750 750 751 751 751 751 751 751 752 752 752 753 753 754 754 754 754 754 754 754 754 754 755 755 755 754 754 754 754 754 753 753 753
743 742 741 741 740 740 739 739 739 740 740 741 741 742 742 742 743 743 744 744 744 745 745 746 746 746 747 747 747 747 748 748 748 749 749 749 750 750 750 751 751 751 751 751 751 751 752 752 753 753 754 754 754 754 754 754 754 754 754 754 754 754 754 754 754 754 754 753 753
742 742 741 740 739 739 739 738 738 739 739 740 740 741 741 742 742 743 743 743 744 744 745 745 745 746 746 746 747 747 747 747 748 748 749 749 749 750 750 750 750 751 751 751 751 751 751 752 752 753 753 753 754 754 754 754 754 754 754 754 754 754 754 754 754 754 754 754 753
742 741 740 739 739 738 738 738 738 738 738 739 739 739 740 741 742 742 742 743 743 744 744 744 745 745 745 746 746 747 747 747 747 748 748 749 749 749 750 750 750 750 750 750 750 751 751 751 752 752 753 753 753 753 754 754 754 754 754 754 754 754 754 754 754 754 754 754 754
741 740 739 739 738 737 737 737 737 737 737 737 738 738 739 740 741 741 742 742 743 743 743 744 744 744 745 745 746 746 746 747 747 747 748 748 748 749 749 750 750 750 750 750 750 750 751 751 752 752 752 753 753 753 753 753 753 754 754 754 754 754 754 754 754 754 754 754 754
740 740 739 738 737 737 737 736 736 736 736 737 737 737 738 739 740 740 741 742 742 742 743 743 743 744 744 744 745 745 746 746 746 747 747 748 748 748 749 749 749 749 749 750 750 750 751 751 751 752 752 752 753 753 753 753 753 753 754 754 754 754 754 754 754 754 754 754 754
740 739 738 737 737 736 736 735 735 735 736 736 736 737 737 738 738 739 740 740 741 741 742 742 743 743 743 744 744 745 745 746 746 746 747 747 747 748 748 749 749 749 749 749 750 750 750 751 751 751 752 752 752 752 753 753 753 753 753 754 754 754 754 754 754 754 754 754 754
739 738 737 736 736 735 735 734 734 734 735 735 735 736 736 737 737 738 739 739 740 741 741 742 742 742 743 743 744 744 745 745 745 746 746 747 747 748 748 748 749 749 749 749 750 750 750 751 751 751 751 752 752 752 753 753 753 753 753 753 754 754 754 754 754 754 754 754 754
738 737 736 735 735 734 734 734 733 733 733 734 734 734 735 736 736 737 737 738 739 740 740 741 742 742 742 743 743 744 744 744 745 745 746 746 747 747 748 748 748 749 749 749 749 750 750 750 751 751 751 751 752 752 752 753 753 753 753 753 754 754 754 754 754 754 754 754 754
737 737 735 734 734 733 733 733 732 732 732 732 732 733 734 735 735 736 737 737 738 739 739 740 741 741 742 742 743 743 743 744 744 745 745 746 746 747 747 748 748 748 748 749 749 749 750 750 750 751 751 751 752 752 752 752 753 753 753 753 754 754 754 754 754 754 755 754 754
737 736 735 733 733 732 732 732 732 731 731 731 731 732 733 734 734 735 736 736 737 737 738 739 740 741 741 742 742 742 743 744 744 745 745 746 746 747 747 747 747 748 748 748 749 749 750 750 750 750 751 751 751 752 752 752 752 753 753 753 754 754 754 754 754 754 754 754 754
736 735 734 732 732 731 731 731 730 730 730 730 730 730 731 732 733 734 734 735 736 737 737 738 739 740 741 741 742 742 743 743 744 744 745 745 746 746 747 747 747 747 748 748 749 749 749 750 750 750 750 751 751 752 752 752 752 753 753 753 754 754 754 754 754 754 754 754 754
735 734 733 732 731 730 730 730 729 729 729 728 729 729 730 731 732 733 733 734 735 736 737 737 738 739 740 741 741 742 742 743 743 744 744 745 745 746 747 747 747 747 747 748 748 749 749 749 749 750 750 750 751 751 752 752 752 752 753 753 754 754 754 754 754 754 754 754 754
734 733 732 731 730 729 729 728 728 728 727 727 727 728 728 730 731 732 732 733 734 735 736 737 737 738 739 740 740 741 742 742 743 743 744 744 745 746 746 747 747 747 747 748 748 748 749 749 749 749 750 750 751 751 751 752 752 752 753 753 754 754 754 754 754 754 754 754 754
733 732 731 730 729 728 727 727 727 727 726 726 727 727 727 728 729 730 731 732 733 733 734 735 736 737 738 739 740 740 741 742 742 743 744 744 745 745 746 746 747 747 747 747 748 748 748 748 749 749 749 750 750 751 751 751 752 752 753 753 754 754 754 754 754 754 754 754 754
732 731 730 729 727 727 726 726 725 725 725 725 726 726 727 727 728 729 730 731 732 732 733 734 735 736 737 738 739 740 740 741 742 743 743 744 745 745 746 746 746 747 747 747 747 747 748 748 748 748 749 749 750 750 751 751 752 752 752 753 753 754 754 754 754 755 755 754 754
731 729 728 727 726 725 725 724 724 724 724 724 725 725 725 726 727 728 729 730 731 732 732 733 735 736 737 738 738 739 740 740 741 742 743 744 744 745 745 746 746 746 747 747 747 747 747 747 748 748 748 749 749 750 750 751 751 752 752 753 753 754 754 754 754 755 755 755 754
729 728 727 726 725 724 723 722 722 722 723 723 723 724 724 725 726 727 728 729 730 731 732 733 734 735 736 737 738 739 739 740 741 742 742 743 744 744 745 745 746 746 746 746 747 747 747 747 747 747 747 748 749 749 750 750 751 751 752 752 753 753 754 754 754 755 755 755 755